EW3206 Weather Reports


Display with metric or nautical units.
time (UTC)temp
F
wind
direction
speed
MPH
gust
MPH
rain 1hr
in
rain 24hr
in
rain mn
in
humidity
%
barometer
mb
20260504041310 54 219 0.0 0.0 0.00 0.00 0.00 89 10.0
20260504035310 54 219 0.0 0.0 0.00 0.00 0.00 89 10.2
20260504033310 54 219 0.0 0.0 0.00 0.00 0.00 89 10.3
20260504032310 54 219 0.0 0.0 0.00 0.00 0.00 89 10.2
20260504031310 54 219 0.0 0.0 0.00 0.00 0.00 89 10.3
20260504024310 54 206 0.0 0.0 0.00 0.00 0.00 89 10.1
20260504023310 54 208 0.0 2.0 0.00 0.00 0.00 89 9.9
20260504022312 54 250 0.0 0.0 0.00 0.00 0.00 89 10.1
20260504021309 54 250 0.0 0.0 0.00 0.00 0.00 89 9.9
20260504015310 54 313 0.0 0.0 0.00 0.00 0.00 88 10.0
20260504014310 54 313 0.0 0.0 0.00 0.00 0.00 89 9.7
20260504012310 54 313 0.0 0.0 0.00 0.00 0.00 89 9.8
20260504011312 55 271 0.0 0.0 0.00 0.00 0.00 89 9.9
20260504004310 55 271 0.0 0.0 0.00 0.00 0.00 88 9.8
20260504002309 54 271 0.0 0.0 0.00 0.00 0.00 88 9.7
20260504001309 54 237 0.0 0.0 0.00 0.00 0.00 88 9.8
20260503235309 54 240 0.0 1.0 0.00 0.00 0.00 88 9.8
20260503233310 53 235 0.0 0.0 0.00 0.00 0.00 87 10.0
20260503232310 53 236 0.0 0.0 0.00 0.00 0.00 87 9.9
20260503231309 54 236 0.0 0.0 0.00 0.00 0.00 87 9.9
20260503225310 54 236 0.0 0.0 0.00 0.00 0.00 87 9.9
20260503224309 54 236 0.0 0.0 0.00 0.00 0.00 87 10.0
20260503223309 55 249 0.0 0.0 0.00 0.00 0.00 87 9.8
20260503222309 55 253 0.0 0.0 0.00 0.00 0.00 87 9.9
20260503221309 55 253 0.0 0.0 0.00 0.00 0.00 87 10.0
20260503215309 56 259 0.0 0.0 0.00 0.47 0.47 87 9.8
20260503214310 56 246 0.0 0.0 0.00 0.47 0.47 87 9.9
20260503212310 56 199 0.0 1.0 0.00 0.47 0.47 87 9.8
20260503211310 57 209 0.0 1.0 0.00 0.47 0.47 87 9.9
20260503205310 57 258 0.0 0.0 0.00 0.47 0.47 87 9.7
20260503204310 58 242 0.0 1.0 0.00 0.47 0.47 87 9.6
20260503203310 58 248 0.0 1.0 0.00 0.47 0.47 87 9.8
20260503202309 58 263 0.0 2.0 0.00 0.47 0.47 87 9.9
20260503201310 58 233 0.0 0.0 0.00 0.47 0.47 87 9.8
20260503195309 58 203 0.0 0.0 0.04 0.47 0.47 87 9.4
20260503194310 58 202 0.0 1.0 0.09 0.47 0.47 86 9.3
20260503193310 58 188 0.0 0.0 0.09 0.47 0.47 86 9.2
20260503182309 62 262 0.0 7.0 0.02 0.25 0.25 81 9.3
20260503181308 62 262 0.0 7.0 0.02 0.25 0.25 81 9.3
20260503180308 62 262 0.0 7.0 0.02 0.25 0.25 81 9.3
20260503174308 62 262 0.0 7.0 0.02 0.25 0.25 81 9.3
20260503173308 62 262 0.0 7.0 0.02 0.25 0.25 81 9.3
20260503172308 62 262 0.0 7.0 0.02 0.25 0.25 81 9.3
20260503171308 62 262 0.0 7.0 0.02 0.25 0.25 81 9.3
20260503170309 62 262 0.0 7.0 0.02 0.25 0.25 81 9.3
20260503140309 62 262 0.0 7.0 0.02 0.25 0.25 81 9.3
20260503131308 62 262 0.0 7.0 0.02 0.25 0.25 81 9.3
20260503081309 63 193 1.0 3.0 0.00 0.23 0.23 85 8.9
20260503072309 61 206 0.0 3.0 0.00 0.23 0.23 88 8.8
20260503071312 60 225 0.0 1.0 0.00 0.23 0.23 89 8.8
20260503053309 57 149 1.0 7.0 0.00 0.23 0.23 88 8.9
20260503052309 57 137 1.0 7.0 0.00 0.23 0.23 88 8.9
20260503051309 56 157 0.0 4.0 0.00 0.23 0.23 88 9.0
20260503045310 56 123 0.0 1.0 0.00 0.23 0.23 88 9.1
20260503044309 56 126 1.0 3.0 0.00 0.23 0.23 88 9.1
20260503043310 56 125 0.0 1.0 0.00 0.23 0.23 87 9.4
20260503042309 56 217 0.0 0.0 0.00 0.23 0.23 87 9.6